| time (UTC) | temp F | wind direction | speed MPH | gust MPH | rain 1hr in | rain 24hr in | rain mn in | humidity % | barometer mb |
| 20260505124556 | 51 | 199 | 2.0 | 4.0 | 0.01 | 0.02 | 0.01 | 93 | 1014.9 |
| 20260505124532 | 51 | 200 | 2.0 | 0.0 | 0.00 | 0.00 | 0.01 | 93 | 1015.6 |
| 20260505123102 | 51 | 202 | 0.0 | 5.0 | 0.00 | 0.01 | 0.00 | 93 | 1015.0 |
| 20260505123048 | 51 | 217 | 2.0 | 0.0 | 0.00 | 0.00 | 0.00 | 93 | 1015.5 |
| 20260505121556 | 51 | 236 | 2.0 | 4.0 | 0.00 | 0.01 | 0.00 | 93 | 1015.0 |
| 20260505121551 | 51 | 236 | 3.0 | 0.0 | 0.00 | 0.00 | 0.00 | 93 | 1015.5 |
| 20260505120104 | 51 | 213 | 2.0 | 7.0 | 0.00 | 0.01 | 0.00 | 93 | 1015.0 |
| 20260505120050 | 51 | 207 | 3.0 | 0.0 | 0.00 | 0.00 | 0.00 | 93 | 1015.5 |
| 20260505114602 | 52 | 185 | 3.0 | 0.0 | 0.00 | 0.00 | 0.00 | 94 | 1015.5 |
| 20260505114556 | 52 | 185 | 3.0 | 7.0 | 0.00 | 0.01 | 0.00 | 93 | 1015.0 |
| 20260505113126 | 52 | 169 | 3.0 | 0.0 | 0.00 | 0.00 | 0.00 | 93 | 1015.4 |
| 20260505113112 | 52 | 169 | 2.0 | 7.0 | 0.00 | 0.01 | 0.00 | 93 | 1014.9 |
| 20260505111609 | 52 | 211 | 3.0 | 0.0 | 0.00 | 0.00 | 0.00 | 93 | 1015.4 |
| 20260505111556 | 52 | 154 | 3.0 | 6.0 | 0.00 | 0.01 | 0.00 | 93 | 1014.9 |
| 20260505110132 | 51 | 198 | 4.0 | 0.0 | 0.00 | 0.00 | 0.00 | 93 | 1015.5 |
| 20260505110116 | 52 | 198 | 4.0 | 6.0 | 0.00 | 0.01 | 0.00 | 93 | 1015.0 |
| 20260505101559 | 52 | 172 | 3.0 | 7.0 | 0.00 | 0.01 | 0.00 | 93 | 1014.8 |
| 20260505101552 | 52 | 206 | 4.0 | 0.0 | 0.00 | 0.00 | 0.00 | 94 | 1015.3 |
| 20260505100137 | 52 | 180 | 2.0 | 0.0 | 0.00 | 0.00 | 0.00 | 93 | 1015.3 |
| 20260505100056 | 52 | 192 | 3.0 | 5.0 | 0.00 | 0.01 | 0.00 | 93 | 1014.9 |
| 20260505094618 | 52 | 182 | 2.0 | 7.0 | 0.00 | 0.01 | 0.00 | 93 | 1014.9 |
| 20260505094521 | 52 | 177 | 3.0 | 0.0 | 0.00 | 0.00 | 0.00 | 93 | 1015.3 |
| 20260505093059 | 52 | 236 | 2.0 | 7.0 | 0.00 | 0.01 | 0.00 | 93 | 1014.7 |
| 20260505093037 | 52 | 236 | 3.0 | 0.0 | 0.00 | 0.00 | 0.00 | 93 | 1015.2 |
| 20260505091605 | 52 | 180 | 2.0 | 7.0 | 0.00 | 0.01 | 0.00 | 93 | 1014.7 |
| 20260505091601 | 51 | 180 | 3.0 | 0.0 | 0.00 | 0.00 | 0.00 | 93 | 1015.2 |
| 20260505090119 | 52 | 171 | 4.0 | 0.0 | 0.00 | 0.00 | 0.00 | 93 | 1015.2 |
| 20260505090105 | 52 | 220 | 4.0 | 8.0 | 0.00 | 0.01 | 0.00 | 93 | 1014.6 |
| 20260505084635 | 52 | 207 | 4.0 | 0.0 | 0.00 | 0.00 | 0.00 | 93 | 1015.1 |
| 20260505084559 | 52 | 229 | 3.0 | 8.0 | 0.00 | 0.01 | 0.00 | 93 | 1014.6 |
| 20260505083105 | 52 | 191 | 4.0 | 8.0 | 0.00 | 0.01 | 0.00 | 93 | 1014.4 |
| 20260505083015 | 52 | 234 | 4.0 | 0.0 | 0.00 | 0.00 | 0.00 | 93 | 1015.0 |
| 20260505081600 | 52 | 205 | 3.0 | 8.0 | 0.00 | 0.01 | 0.00 | 93 | 1014.4 |
| 20260505081550 | 52 | 194 | 4.0 | 0.0 | 0.00 | 0.00 | 0.00 | 93 | 1015.0 |
| 20260505080124 | 52 | 198 | 5.0 | 0.0 | 0.00 | 0.00 | 0.00 | 93 | 1015.1 |
| 20260505080056 | 52 | 253 | 4.0 | 8.0 | 0.00 | 0.01 | 0.00 | 92 | 1014.5 |
| 20260505074627 | 52 | 222 | 5.0 | 0.0 | 0.00 | 0.00 | 0.00 | 93 | 1015.1 |
| 20260505074556 | 52 | 165 | 4.0 | 9.0 | 0.00 | 0.02 | 0.00 | 92 | 1014.4 |
| 20260505073103 | 52 | 185 | 2.0 | 6.0 | 0.00 | 0.02 | 0.00 | 92 | 1014.5 |
| 20260505073023 | 52 | 245 | 3.0 | 0.0 | 0.00 | 0.00 | 0.00 | 93 | 1015.0 |
| 20260505071601 | 52 | 178 | 2.0 | 0.0 | 0.00 | 0.00 | 0.00 | 93 | 1015.1 |
| 20260505071558 | 52 | 178 | 1.0 | 6.0 | 0.00 | 0.02 | 0.00 | 92 | 1014.6 |
| 20260505070054 | 52 | 217 | 2.0 | 10.0 | 0.00 | 0.02 | 0.00 | 92 | 1014.5 |
| 20260505070003 | 52 | 240 | 5.0 | 0.0 | 0.00 | 0.00 | 0.00 | 92 | 1015.0 |
| 20260505064556 | 52 | 230 | 3.0 | 7.0 | 0.01 | 0.02 | 0.02 | 92 | 1014.6 |
| 20260505064550 | 52 | 230 | 4.0 | 0.0 | 0.00 | 0.00 | 0.02 | 92 | 1015.1 |
| 20260505063056 | 52 | 208 | 4.0 | 8.0 | 0.01 | 0.02 | 0.02 | 92 | 1014.6 |
| 20260505063052 | 52 | 208 | 5.0 | 0.0 | 0.00 | 0.00 | 0.02 | 92 | 1015.2 |
| 20260505061602 | 52 | 232 | 4.0 | 0.0 | 0.00 | 0.00 | 0.02 | 92 | 1015.1 |
| 20260505061557 | 52 | 217 | 3.0 | 8.0 | 0.01 | 0.02 | 0.02 | 91 | 1014.7 |
| 20260505060135 | 52 | 192 | 4.0 | 0.0 | 0.00 | 0.00 | 0.02 | 92 | 1015.2 |
| 20260505054557 | 52 | 194 | 3.0 | 7.0 | 0.00 | 0.01 | 0.01 | 91 | 1014.7 |
| 20260505054512 | 52 | 169 | 4.0 | 0.0 | 0.00 | 0.00 | 0.01 | 91 | 1015.1 |
| 20260505053057 | 52 | 175 | 4.0 | 8.0 | 0.00 | 0.01 | 0.01 | 91 | 1014.7 |
| 20260505053031 | 52 | 175 | 4.0 | 0.0 | 0.00 | 0.00 | 0.01 | 91 | 1015.1 |
| 20260505051604 | 52 | 200 | 4.0 | 0.0 | 0.00 | 0.00 | 0.01 | 91 | 1015.2 |
| 20260505051559 | 52 | 188 | 4.0 | 8.0 | 0.00 | 0.01 | 0.01 | 90 | 1014.8 |
| 20260505050104 | 53 | 214 | 4.0 | 0.0 | 0.00 | 0.00 | 0.01 | 90 | 1015.2 |
| 20260505041554 | 53 | 202 | 4.0 | 9.0 | 0.00 | 0.01 | 0.01 | 88 | 1014.4 |
| 20260505041509 | 53 | 196 | 4.0 | 0.0 | 0.00 | 0.00 | 0.01 | 89 | 1014.8 |
| 20260505040103 | 53 | 242 | 4.0 | 11.0 | 0.00 | 0.01 | 0.01 | 88 | 1014.3 |
| 20260505040052 | 53 | 234 | 4.0 | 0.0 | 0.00 | 0.00 | 0.01 | 88 | 1014.6 |
| 20260505034611 | 53 | 237 | 5.0 | 0.0 | 0.00 | 0.00 | 0.01 | 88 | 1014.5 |
| 20260505034556 | 53 | 232 | 4.0 | 11.0 | 0.00 | 0.01 | 0.01 | 87 | 1014.1 |
| 20260505033125 | 53 | 223 | 6.0 | 0.0 | 0.00 | 0.00 | 0.01 | 88 | 1014.3 |
| 20260505033057 | 53 | 221 | 5.0 | 10.0 | 0.00 | 0.01 | 0.01 | 87 | 1013.9 |
| 20260505031601 | 53 | 200 | 4.0 | 9.0 | 0.00 | 0.01 | 0.01 | 87 | 1013.7 |
| 20260505031505 | 53 | 238 | 5.0 | 0.0 | 0.00 | 0.00 | 0.01 | 88 | 1014.0 |
| 20260505030100 | 54 | 192 | 3.0 | 10.0 | 0.00 | 0.01 | 0.01 | 87 | 1013.8 |
| 20260505030024 | 54 | 213 | 4.0 | 0.0 | 0.00 | 0.00 | 0.01 | 87 | 1014.1 |
| 20260505024556 | 54 | 247 | 5.0 | 9.0 | 0.00 | 0.01 | 0.01 | 86 | 1013.7 |
| 20260505024540 | 54 | 190 | 5.0 | 0.0 | 0.00 | 0.00 | 0.01 | 87 | 1014.1 |
| 20260505023059 | 54 | 227 | 5.0 | 0.0 | 0.00 | 0.00 | 0.01 | 87 | 1014.1 |
| 20260505023056 | 54 | 211 | 4.0 | 10.0 | 0.00 | 0.01 | 0.01 | 87 | 1013.8 |
| 20260505021606 | 54 | 202 | 6.0 | 0.0 | 0.00 | 0.00 | 0.01 | 87 | 1014.0 |
| 20260505021556 | 54 | 192 | 7.0 | 12.0 | 0.00 | 0.01 | 0.01 | 86 | 1013.6 |
| 20260505020123 | 54 | 213 | 5.0 | 0.0 | 0.00 | 0.00 | 0.01 | 87 | 1014.0 |
| 20260505020057 | 54 | 233 | 5.0 | 10.0 | 0.00 | 0.01 | 0.01 | 86 | 1013.6 |
| 20260505014605 | 54 | 216 | 4.0 | 11.0 | 0.00 | 0.01 | 0.01 | 86 | 1013.7 |
| 20260505014504 | 54 | 227 | 6.0 | 0.0 | 0.00 | 0.00 | 0.01 | 87 | 1014.1 |
| 20260505013100 | 55 | 237 | 7.0 | 13.0 | 0.00 | 0.01 | 0.01 | 85 | 1013.7 |
| 20260505013008 | 55 | 213 | 7.0 | 0.0 | 0.00 | 0.00 | 0.01 | 86 | 1014.1 |
| 20260505011557 | 54 | 241 | 7.0 | 12.0 | 0.00 | 0.01 | 0.01 | 85 | 1013.8 |
| 20260505011514 | 54 | 218 | 7.0 | 0.0 | 0.00 | 0.00 | 0.01 | 86 | 1014.3 |
| 20260505010056 | 54 | 202 | 7.0 | 12.0 | 0.00 | 0.01 | 0.01 | 86 | 1013.9 |
| 20260505010048 | 54 | 231 | 7.0 | 0.0 | 0.00 | 0.00 | 0.01 | 86 | 1014.4 |
| 20260505004557 | 55 | 238 | 7.0 | 12.0 | 0.00 | 0.01 | 0.01 | 86 | 1014.2 |
| 20260505004548 | 55 | 226 | 8.0 | 0.0 | 0.00 | 0.00 | 0.01 | 86 | 1014.6 |
| 20260505003056 | 55 | 203 | 7.0 | 14.0 | 0.00 | 0.01 | 0.01 | 86 | 1014.4 |
| 20260505001558 | 55 | 215 | 7.0 | 0.0 | 0.00 | 0.00 | 0.01 | 86 | 1014.8 |
| 20260505000105 | 56 | 242 | 7.0 | 0.0 | 0.00 | 0.00 | 0.01 | 86 | 1014.7 |
| 20260505000058 | 56 | 242 | 6.0 | 13.0 | 0.00 | 0.01 | 0.01 | 86 | 1014.3 |
| 20260504234559 | 56 | 182 | 7.0 | 0.0 | 0.00 | 0.00 | 0.01 | 86 | 1014.8 |
| 20260504234555 | 56 | 197 | 7.0 | 13.0 | 0.00 | 0.01 | 0.01 | 86 | 1014.3 |
| 20260504233108 | 56 | 236 | 8.0 | 0.0 | 0.00 | 0.00 | 0.01 | 86 | 1014.6 |
| 20260504233055 | 56 | 200 | 8.0 | 14.0 | 0.00 | 0.01 | 0.01 | 86 | 1014.2 |
| 20260504231611 | 56 | 200 | 9.0 | 0.0 | 0.00 | 0.00 | 0.01 | 87 | 1014.7 |
| 20260504231558 | 56 | 186 | 9.0 | 14.0 | 0.00 | 0.01 | 0.01 | 86 | 1014.4 |
| 20260504230112 | 56 | 211 | 9.0 | 0.0 | 0.00 | 0.00 | 0.01 | 86 | 1014.7 |
| 20260504230055 | 56 | 189 | 8.0 | 16.0 | 0.00 | 0.01 | 0.01 | 86 | 1014.4 |
| 20260504224628 | 56 | 205 | 9.0 | 0.0 | 0.00 | 0.00 | 0.01 | 86 | 1014.9 |
| 20260504224554 | 56 | 180 | 8.0 | 16.0 | 0.00 | 0.01 | 0.01 | 86 | 1014.5 |
| 20260504223057 | 56 | 233 | 9.0 | 16.0 | 0.00 | 0.01 | 0.01 | 86 | 1014.7 |
| 20260504223047 | 56 | 229 | 10.0 | 0.0 | 0.00 | 0.00 | 0.01 | 87 | 1015.0 |
| 20260504221558 | 56 | 239 | 9.0 | 0.0 | 0.00 | 0.00 | 0.01 | 86 | 1015.1 |
| 20260504221555 | 56 | 239 | 8.0 | 19.0 | 0.00 | 0.01 | 0.01 | 86 | 1014.8 |
| 20260504220124 | 56 | 227 | 9.0 | 0.0 | 0.00 | 0.00 | 0.01 | 87 | 1015.3 |
| 20260504220056 | 56 | 233 | 10.0 | 18.0 | 0.00 | 0.01 | 0.01 | 87 | 1014.9 |
| 20260504214605 | 56 | 211 | 10.0 | 17.0 | 0.00 | 0.01 | 0.01 | 87 | 1014.8 |
| 20260504214501 | 56 | 243 | 10.0 | 0.0 | 0.00 | 0.00 | 0.01 | 87 | 1015.2 |
| 20260504213140 | 56 | 211 | 9.0 | 18.0 | 0.00 | 0.01 | 0.01 | 87 | 1014.8 |
| 20260504213022 | 56 | 215 | 10.0 | 0.0 | 0.00 | 0.00 | 0.01 | 87 | 1015.2 |
| 20260504211556 | 56 | 224 | 8.0 | 17.0 | 0.00 | 0.01 | 0.01 | 88 | 1014.9 |
| 20260504211537 | 56 | 205 | 8.0 | 0.0 | 0.00 | 0.00 | 0.01 | 88 | 1015.3 |
| 20260504210106 | 55 | 207 | 8.0 | 16.0 | 0.00 | 0.01 | 0.01 | 89 | 1015.0 |
| 20260504210002 | 55 | 232 | 9.0 | 0.0 | 0.00 | 0.00 | 0.01 | 89 | 1015.3 |
| 20260504204610 | 54 | 258 | 8.0 | 16.0 | 0.00 | 0.01 | 0.01 | 89 | 1015.0 |
| 20260504204527 | 54 | 246 | 9.0 | 0.0 | 0.00 | 0.00 | 0.01 | 90 | 1015.5 |
| 20260504203135 | 54 | 225 | 7.0 | 14.0 | 0.00 | 0.01 | 0.01 | 89 | 1015.0 |
| 20260504203041 | 54 | 234 | 8.0 | 0.0 | 0.00 | 0.00 | 0.01 | 90 | 1015.6 |
| 20260504201610 | 54 | 226 | 8.0 | 13.0 | 0.00 | 0.01 | 0.01 | 89 | 1015.0 |
| 20260504201601 | 54 | 252 | 8.0 | 0.0 | 0.00 | 0.00 | 0.01 | 89 | 1015.5 |
| 20260504200100 | 55 | 232 | 6.0 | 13.0 | 0.00 | 0.01 | 0.01 | 90 | 1014.9 |
| 20260504200006 | 55 | 229 | 8.0 | 0.0 | 0.00 | 0.00 | 0.01 | 90 | 1015.4 |
| 20260504194606 | 54 | 222 | 8.0 | 16.0 | 0.00 | 0.01 | 0.01 | 89 | 1015.0 |
| 20260504194513 | 54 | 236 | 8.0 | 0.0 | 0.00 | 0.00 | 0.01 | 90 | 1015.3 |
| 20260504193058 | 54 | 179 | 8.0 | 18.0 | 0.00 | 0.01 | 0.01 | 90 | 1014.8 |
| 20260504193043 | 54 | 225 | 8.0 | 0.0 | 0.00 | 0.00 | 0.01 | 91 | 1015.3 |
| 20260504191608 | 54 | 231 | 9.0 | 0.0 | 0.00 | 0.00 | 0.01 | 91 | 1015.2 |
| 20260504191605 | 54 | 232 | 8.0 | 17.0 | 0.00 | 0.01 | 0.01 | 91 | 1014.8 |
| 20260504190058 | 54 | 203 | 10.0 | 19.0 | 0.00 | 0.01 | 0.01 | 92 | 1014.6 |
| 20260504190002 | 54 | 198 | 10.0 | 0.0 | 0.00 | 0.00 | 0.01 | 92 | 1015.0 |
| 20260504184602 | 53 | 173 | 8.0 | 17.0 | 0.00 | 0.01 | 0.01 | 92 | 1014.7 |
| 20260504184527 | 54 | 190 | 8.0 | 0.0 | 0.00 | 0.00 | 0.01 | 93 | 1015.1 |
| 20260504183105 | 53 | 213 | 8.0 | 16.0 | 0.00 | 0.01 | 0.01 | 93 | 1014.7 |
| 20260504183044 | 53 | 183 | 9.0 | 0.0 | 0.00 | 0.00 | 0.01 | 93 | 1015.1 |
| 20260504181609 | 53 | 193 | 9.0 | 0.0 | 0.00 | 0.00 | 0.01 | 94 | 1015.1 |
| 20260504181555 | 53 | 227 | 10.0 | 20.0 | 0.00 | 0.01 | 0.01 | 93 | 1014.7 |
| 20260504180121 | 53 | 211 | 10.0 | 0.0 | 0.00 | 0.00 | 0.01 | 94 | 1015.1 |
| 20260504180108 | 53 | 177 | 8.0 | 15.0 | 0.00 | 0.01 | 0.01 | 93 | 1014.7 |
| 20260504174555 | 53 | 206 | 7.0 | 18.0 | 0.00 | 0.01 | 0.01 | 94 | 1014.5 |
| 20260504174513 | 53 | 230 | 9.0 | 0.0 | 0.00 | 0.00 | 0.01 | 94 | 1015.0 |
| 20260504173126 | 53 | 211 | 8.0 | 0.0 | 0.00 | 0.00 | 0.01 | 94 | 1015.0 |
| 20260504173107 | 53 | 196 | 8.0 | 14.0 | 0.00 | 0.01 | 0.01 | 94 | 1014.6 |
| 20260504171601 | 53 | 188 | 8.0 | 15.0 | 0.00 | 0.01 | 0.01 | 94 | 1014.5 |
| 20260504171508 | 53 | 188 | 8.0 | 0.0 | 0.00 | 0.00 | 0.01 | 94 | 1015.0 |
| 20260504160106 | 52 | 215 | 7.0 | 17.0 | 0.00 | 0.01 | 0.01 | 94 | 1014.2 |